Content
SEND FEEDBACK

Daily
Averages
Monthly
Summary
United States of America

MINGO, KANSAS


Home > North America > United States > Kansas
Elevation: 3020 feet     Latitude: 39 16N     Longitude: 100 52W

WEATHER
 
SELECT A DAY
Number of Records: 50,320;   Date Range: 4/3/12 - 9/1/14
 
SHARE

PRINT THIS DATA

[ ← Previous Day ]
WEATHER ALMANAC - FEBRUARY 13, 2013
[ Next Day → ]
[ °C ]   °F
Weather ElementAverageHighLow
Temperature36.4 °F53.6 °F (1:55 pm)21.2 °F (6:15 am)
Dewpoint22.8 °F26.6 °F (1:55 pm)19.4 °F (12:35 am)
Humidity62.2 %93 % (6:15 am)33 % (4:15 pm)
Barometer29.93 in30.00 in (12:35 am)29.86 in (2:35 pm)
Wind Speed13 mph24.2 mph (2:35 pm)
Wind Gust32.2 mph (2:55 pm)
Weather ElementAverage
Visibility10 mi
Wind DirectionWNW (294.9 °)

Weather ElementTotal
Precipitation---
Heating Degree Days27.6 (Base 65)
Averaged from 71 records on February 13, 2013
WEATHER CONDITIONS BREAKOUT
WIND DIRECTION BREAKOUT
WEATHER BY HOUR - FEBRUARY 13, 2013
[ °C ]   °F
Local TimeTemperatureDewpointHumidityBarometerVisibilityWind DirectionWind SpeedGust SpeedPrecipitationEventsConditions
12:35 AM24.8 °F19.4 °F80 %30.00 in10.0 miWNW (290°)10.4 mphClear
12:55 AM26.6 °F21.2 °F80 %30.00 in10.0 miWNW (290°)15.0 mphClear
1:15 AM26.6 °F21.2 °F80 %30.00 in10.0 miWNW (290°)13.8 mphClear
1:35 AM26.6 °F21.2 °F80 %29.99 in10.0 miWNW (290°)12.7 mphClear
1:55 AM26.6 °F21.2 °F80 %29.99 in10.0 miWNW (290°)16.1 mphClear
2:15 AM26.6 °F19.4 °F74 %29.99 in10.0 miWNW (290°)15.0 mphClear
2:35 AM26.6 °F19.4 °F74 %29.98 in10.0 miWNW (290°)13.8 mphClear
2:55 AM23.0 °F19.4 °F86 %29.98 in10.0 miWest (280°)11.5 mphClear
3:15 AM24.8 °F19.4 °F80 %29.98 in10.0 miWNW (290°)12.7 mphClear
3:35 AM26.6 °F19.4 °F74 %29.98 in10.0 miWNW (300°)15.0 mphClear
3:55 AM26.6 °F19.4 °F74 %29.97 in10.0 miWNW (300°)13.8 mphClear
4:15 AM26.6 °F19.4 °F74 %29.96 in10.0 miWNW (290°)11.5 mphClear
4:35 AM24.8 °F19.4 °F80 %29.96 in10.0 miWNW (290°)11.5 mphClear
4:55 AM23.0 °F19.4 °F86 %29.96 in10.0 miWest (280°)9.2 mphClear
5:15 AM23.0 °F19.4 °F86 %29.95 in10.0 miWest (280°)10.4 mphClear
5:35 AM23.0 °F19.4 °F86 %29.96 in10.0 miWest (270°)9.2 mphClear
5:55 AM23.0 °F19.4 °F86 %29.95 in10.0 miWest (260°)8.1 mphClear
6:15 AM21.2 °F19.4 °F93 %29.95 in10.0 miWest (260°)10.4 mphClear
6:35 AM23.0 °F19.4 °F86 %29.95 in10.0 miWest (270°)11.5 mphClear
6:55 AM23.0 °F19.4 °F86 %29.95 in10.0 miWest (270°)9.2 mphClear
7:15 AM21.2 °F19.4 °F93 %29.95 in10.0 miWest (270°)9.2 mphClear
7:35 AM23.0 °F19.4 °F86 %29.95 in10.0 miWest (270°)6.9 mphClear
7:55 AM23.0 °F19.4 °F86 %29.95 in10.0 miWest (270°)11.5 mphClear
8:15 AM24.8 °F19.4 °F80 %29.95 in10.0 miWest (270°)12.7 mphClear
8:35 AM28.4 °F21.2 °F74 %29.95 in10.0 miWest (260°)11.5 mphClear
8:55 AM30.2 °F21.2 °F69 %29.95 in10.0 miWest (270°)9.2 mphClear
9:15 AM33.8 °F23.0 °F65 %29.95 in10.0 miWest (270°)13.8 mphClear
9:35 AM35.6 °F23.0 °F60 %29.95 in10.0 miWest (270°)15.0 mphClear
9:55 AM37.4 °F23.0 °F56 %29.95 in10.0 miWest (270°)13.8 mphClear
10:15 AM39.2 °F21.2 °F49 %29.95 in10.0 miWSW (250°)11.5 mphClear
10:35 AM42.8 °F21.2 °F42 %29.95 in10.0 miWNW (300°)15.0 mph21.9 mphClear
10:55 AM44.6 °F21.2 °F39 %29.94 in10.0 miWNW (300°)13.8 mphClear
11:15 AM44.6 °F23.0 °F43 %29.93 in10.0 miWNW (300°)16.1 mph21.9 mphClear
11:35 AM46.4 °F23.0 °F40 %29.93 in10.0 miWNW (300°)13.8 mph21.9 mphClear
11:55 AM46.4 °F23.0 °F40 %29.93 in10.0 miWNW (300°)18.4 mph21.9 mphClear
12:15 PM48.2 °F23.0 °F37 %29.92 in10.0 miWNW (300°)17.3 mph24.2 mphClear
12:35 PM50.0 °F23.0 °F35 %29.92 in10.0 miWNW (290°)15.0 mphClear
12:55 PM50.0 °F23.0 °F35 %29.91 in10.0 miWNW (300°)15.0 mph23.0 mphClear
1:15 PM51.8 °F24.8 °F35 %29.89 in10.0 miWNW (290°)19.6 mph24.2 mphClear
1:35 PM51.8 °F24.8 °F35 %29.88 in10.0 miNW (310°)16.1 mph29.9 mphClear
1:55 PM53.6 °F26.6 °F35 %29.88 in10.0 miNW (320°)18.4 mph26.5 mphClear
2:15 PM53.6 °F26.6 °F35 %29.87 in10.0 miNNW (330°)23.0 mph27.6 mphClear
2:35 PM51.8 °F26.6 °F38 %29.86 in10.0 miNW (320°)24.2 mph29.9 mphClear
2:55 PM53.6 °F26.6 °F35 %29.86 in10.0 miNNW (330°)23.0 mph32.2 mphClear
3:15 PM53.6 °F26.6 °F35 %29.86 in10.0 miNW (320°)21.9 mph32.2 mphClear
3:35 PM53.6 °F26.6 °F35 %29.86 in10.0 miNNW (330°)24.2 mph28.8 mphScattered Clouds
3:55 PM53.6 °F26.6 °F35 %29.86 in10.0 miNW (310°)19.6 mph25.3 mphClear
4:15 PM53.6 °F24.8 °F33 %29.86 in10.0 miNW (310°)20.7 mph31.1 mphClear
4:35 PM53.6 °F24.8 °F33 %29.86 in10.0 miWNW (300°)19.6 mph23.0 mphClear
4:55 PM51.8 °F23.0 °F33 %29.86 in10.0 miNW (310°)17.3 mph27.6 mphClear
5:15 PM51.8 °F24.8 °F35 %29.86 in10.0 miNW (320°)15.0 mph24.2 mphClear
5:35 PM50.0 °F24.8 °F37 %29.87 in10.0 miNNW (330°)13.8 mphClear
5:55 PM50.0 °F26.6 °F40 %29.88 in10.0 miNorth (350°)11.5 mph17.3 mphClear
6:15 PM46.4 °F26.6 °F46 %29.88 in10.0 miNorth (350°)10.4 mphClear
6:35 PM44.6 °F24.8 °F46 %29.88 in10.0 miNorth (350°)9.2 mphClear
6:55 PM42.8 °F26.6 °F53 %29.89 in10.0 miNorth (350°)6.9 mphClear
7:15 PM41.0 °F24.8 °F53 %29.89 in10.0 miNorth (350°)6.9 mphClear
7:35 PM41.0 °F26.6 °F57 %29.90 in10.0 miNorth (360°)5.8 mphClear
7:55 PM41.0 °F26.6 °F57 %29.91 in10.0 miNNW (340°)3.5 mphClear
8:15 PM35.6 °F24.8 °F65 %29.91 in10.0 miNNW (330°)3.5 mphClear
8:35 PM28.4 °F21.2 °F74 %29.91 in10.0 miWest (260°)5.8 mphClear
8:55 PM28.4 °F21.2 °F74 %29.91 in10.0 miWSW (240°)6.9 mphClear
9:15 PM30.2 °F23.0 °F75 %29.92 in10.0 miWest (260°)8.1 mphClear
9:35 PM30.2 °F24.8 °F80 %29.93 in10.0 miWest (280°)10.4 mphClear
9:55 PM32.0 °F24.8 °F75 %29.95 in10.0 miWNW (290°)11.5 mphClear
10:15 PM32.0 °F26.6 °F80 %29.96 in10.0 miWNW (290°)10.4 mphClear
10:35 PM32.0 °F24.8 °F75 %29.96 in10.0 miWest (270°)9.2 mphClear
10:55 PM30.2 °F24.8 °F80 %29.96 in10.0 miWest (260°)8.1 mphClear
11:15 PM30.2 °F24.8 °F80 %29.97 in10.0 miWest (280°)11.5 mphClear
11:35 PM32.0 °F26.6 °F80 %29.98 in10.0 miWNW (290°)12.7 mphClear
11:55 PM32.0 °F26.6 °F80 %29.98 in10.0 miWest (280°)11.5 mphClear
Hourly data recorded from KCBK, located miles away from Mingo, Kansas







STORIES FROM OUR PARTNERS